Tracking 29528 objects as of 14-Sep-2024
HD Live streaming from Space Station
objects crossing your sky now

STARLINK-32160

Track STARLINK-32160 now!
10-day predictions
STARLINK-32160 is classified as:


NORAD ID: 60261
Int'l Code: 2024-131G
Perigee: 454.0 km
Apogee: 454.9 km
Inclination: 53.2 °
Period: 93.5 minutes
Semi major axis: 6825 km
RCS: Unknown
Launch date: July 27, 2024
Source: United States (US)
Launch site: AIR FORCE EASTERN TEST RANGE (AFETR)
Your satellite tracking list
Your tracking list is empty




NASA's NSSDC Master Catalog

Two Line Element Set (TLE):
1 60261U 24131G   24257.75519165 -.00005097  00000-0 -11767-3 0  9993
2 60261  53.1613  52.6706 0000702  91.8623 268.2463 15.39590091  8753
Source of the keplerian elements: AFSPC